Theta_e
314 316 316 316 314 312 312 311 311 309 308 308 308 308 309 310 311 311 311 311 311 311 309 309 308 305 303 303 304 305 307 307 307 308 308 308 308 308 308 309 309 309
314 316 315 315 315 313 312 312 312 311 310 309 308 309 311 312 313 313 313 313 313 311 310 310 308 305 303 304 305 306 306 305 306 306 307 307 307 307 307 307 308 308
315 315 315 314 314 313 313 313 313 312 311 310 309 310 312 313 313 314 314 313 312 312 311 311 308 305 304 305 306 305 305 304 304 305 305 306 306 306 306 306 306 306
315 316 315 314 314 314 313 313 313 313 312 311 310 311 312 313 313 313 313 312 312 311 311 310 307 305 305 306 306 305 304 304 304 305 305 305 305 305 305 305 305 305
316 316 316 315 314 314 314 314 314 313 312 312 311 311 312 313 312 312 312 312 311 311 311 309 306 305 306 306 305 305 305 305 305 305 305 305 305 305 305 305 305 305
317 317 316 315 315 315 315 315 314 313 313 312 312 312 312 312 311 312 311 311 311 311 309 307 305 306 306 306 305 305 305 305 305 305 305 305 305 304 304 304 304 304
318 317 317 316 316 316 316 315 314 313 313 313 313 312 312 312 312 311 310 311 311 309 307 306 306 306 306 306 306 305 305 305 305 304 304 304 304 303 303 303 303 303
318 318 317 317 317 316 315 314 314 313 314 314 313 312 313 312 311 311 311 310 309 307 306 306 307 307 306 306 305 305 305 304 304 303 303 303 302 302 302 302 302 302
318 318 317 317 316 315 315 315 314 314 314 313 313 313 312 311 311 311 310 308 307 306 307 307 307 306 306 305 304 304 304 303 303 303 302 302 302 302 302 302 302 302
316 317 316 316 316 315 315 315 314 314 313 313 312 312 311 311 311 310 308 307 307 307 308 307 307 306 305 305 304 303 303 303 303 302 302 302 302 302 302 302 302 302
315 315 315 316 315 315 315 315 314 313 312 312 312 310 310 310 310 308 307 307 308 308 308 307 306 305 304 304 303 303 302 302 302 302 301 301 301 301 301 301 302 302
316 315 315 315 315 315 316 315 314 313 312 312 311 309 310 309 308 307 307 308 308 308 307 306 305 304 303 303 302 302 302 302 301 301 300 300 300 300 300 300 301 302
317 316 316 315 315 315 315 314 313 312 312 311 310 309 309 309 308 308 308 308 308 307 306 305 304 303 302 302 302 302 301 301 300 300 299 299 299 298 299 298 299 300
317 317 317 316 315 315 314 313 312 312 311 310 309 309 309 309 309 309 309 308 307 306 305 304 303 302 302 302 302 301 301 300 300 299 299 299 299 298 298 298 298 298
318 317 317 316 315 314 313 313 312 311 311 310 309 309 309 309 309 309 308 307 306 304 303 303 302 302 302 301 300 300 299 299 299 299 299 299 299 299 299 299 298 298
318 317 316 314 314 313 313 312 311 311 310 310 310 310 309 310 309 308 307 306 305 303 303 303 302 301 300 300 299 299 298 298 298 298 298 298 298 298 298 298 298 298
317 316 314 314 314 314 313 312 311 311 310 310 310 310 310 309 308 307 306 305 304 303 303 302 301 300 298 297 296 296 296 297 296 296 296 297 297 297 297 297 297 297
315 314 313 313 313 313 313 312 311 311 311 310 310 310 310 308 307 306 305 304 303 303 302 301 299 297 295 293 293 294 294 294 294 294 295 295 295 296 296 296 296 296
314 314 313 312 312 313 313 312 311 311 311 310 310 310 309 307 306 305 304 303 303 302 301 299 296 293 292 292 292 292 293 293 294 294 294 294 294 294 294 294 295 294
314 314 314 313 313 313 313 312 311 311 311 310 310 309 307 306 305 304 304 303 302 300 298 296 293 292 292 291 291 292 292 293 293 294 294 294 293 293 293 293 293 293
314 313 312 312 313 313 312 311 311 311 310 310 309 307 306 305 304 304 303 301 300 299 296 293 292 292 292 291 291 291 292 292 293 293 293 293 293 293 293 293 292 293
312 311 309 309 310 310 310 311 311 310 309 308 307 306 305 304 303 303 301 300 298 297 294 293 292 292 291 291 291 291 291 292 292 292 293 293 293 292 292 292 292 292
311 310 308 308 309 310 310 310 310 309 308 307 306 305 304 303 303 301 299 297 297 295 293 292 292 292 291 290 290 291 291 291 292 292 292 292 292 292 292 292 291 291
311 310 310 310 311 311 310 309 308 308 307 306 305 304 303 302 300 298 297 297 296 294 293 293 292 291 291 290 290 290 291 291 291 292 292 292 292 291 291 291 291 291
311 311 310 310 310 310 309 308 307 306 306 305 304 303 302 299 298 297 297 297 296 294 294 293 292 291 291 290 290 290 290 291 291 291 291 291 291 291 291 291 291 291
311 310 310 309 309 309 308 306 306 305 304 303 303 301 299 297 297 297 297 297 296 295 295 294 293 291 290 291 290 290 290 290 291 291 291 291 291 291 291 291 291 290
Wind_Speed
28 27 27 26 26 25 23 21 19 17 15 14 13 11 10 9 7 7 6 5 5 6 8 9 11 12 12 11 11 12 13 13 13 13 14 13 13 13 12 12 12 11
30 29 28 28 28 27 25 22 20 18 17 15 13 12 11 10 9 9 8 8 8 8 9 10 11 12 12 11 12 13 14 14 14 14 14 14 14 14 14 14 14 13
31 31 29 29 29 28 26 24 22 20 18 16 14 13 12 12 11 10 10 9 8 8 8 9 11 12 12 12 13 14 15 16 15 15 15 14 15 15 15 16 16 16
33 32 31 30 29 28 26 25 24 22 20 18 15 14 14 13 12 11 10 9 9 8 9 9 10 11 12 12 13 15 15 15 15 15 15 15 15 15 16 16 17 18
34 33 32 31 30 28 27 27 25 23 22 19 17 16 16 14 13 12 11 10 10 9 10 10 11 12 12 13 14 14 15 15 14 15 16 17 17 17 17 18 18 18
35 34 33 32 31 29 28 28 26 25 23 21 19 19 18 15 14 13 12 11 10 9 9 10 11 12 13 13 13 13 14 15 15 16 16 17 18 19 20 20 20 20
37 36 35 33 32 31 29 28 27 25 25 23 21 21 19 17 16 14 13 11 9 8 9 9 11 12 13 13 13 13 13 14 15 16 17 18 19 21 21 21 22 22
38 36 35 34 32 31 29 28 27 26 26 25 23 22 21 18 16 15 13 10 9 8 8 9 11 12 12 12 12 13 13 14 15 15 17 18 19 20 20 19 20 22
37 37 35 34 33 31 29 28 27 26 26 26 25 23 21 18 16 14 11 9 7 7 8 10 11 11 10 10 11 12 13 14 15 16 17 17 18 18 18 18 19 20
31 34 35 35 33 31 29 27 26 25 26 25 25 23 20 18 15 13 9 7 7 7 9 10 10 9 9 11 12 13 15 16 16 17 17 17 17 17 17 17 18 19
28 28 31 33 33 30 28 26 25 25 25 24 23 20 19 17 15 12 9 8 7 8 9 9 8 8 10 12 14 15 16 17 17 18 18 18 17 17 17 17 17 18
30 28 27 28 29 29 27 25 24 24 24 23 20 18 17 15 13 11 9 8 8 9 9 7 7 8 11 12 14 15 16 17 18 18 19 19 19 19 18 17 17 17
32 32 31 29 28 27 26 24 24 24 23 21 18 17 15 13 12 10 9 9 9 9 7 6 7 9 11 13 14 16 17 18 19 20 20 20 20 20 19 19 18 18
34 34 34 33 32 29 26 25 24 23 22 19 17 16 14 12 11 11 10 10 9 7 5 6 8 9 11 13 14 16 17 19 20 21 22 23 23 22 22 21 20 20
33 34 34 34 33 31 29 27 25 23 21 18 17 14 13 12 12 11 11 10 7 5 5 5 6 8 10 12 14 16 17 19 21 22 23 25 25 25 24 23 22 22
33 34 34 34 34 32 31 29 27 24 21 19 16 14 14 13 13 12 11 8 5 3 4 4 6 8 10 12 14 16 18 20 22 23 24 25 26 26 26 25 24 24
33 34 35 37 36 35 34 32 28 26 24 20 18 16 15 15 14 12 10 7 5 4 4 5 6 9 11 14 16 18 20 21 23 24 25 25 26 26 27 27 26 26
32 33 34 35 36 37 35 32 30 28 26 22 20 18 17 16 14 12 9 6 5 4 5 5 7 11 13 16 18 19 21 22 24 25 26 26 26 27 28 28 28 28
32 33 33 33 33 33 30 29 30 29 26 23 21 19 18 17 15 11 8 6 5 4 4 6 8 11 14 17 19 21 22 23 24 26 27 27 27 28 28 29 29 29
33 35 37 36 34 31 30 31 31 28 25 22 21 20 19 17 14 10 8 6 5 4 5 6 8 11 15 18 21 23 23 23 24 26 28 28 29 29 29 29 29 29
32 33 34 35 36 36 35 33 30 26 24 22 21 20 18 15 12 10 8 6 4 4 4 5 7 12 16 19 22 24 23 23 24 26 28 29 30 30 30 30 29 29
28 25 22 24 29 33 33 32 28 24 22 21 20 18 16 13 11 9 7 5 5 4 4 5 8 13 16 19 22 24 24 23 25 27 29 30 30 30 30 29 28 28
26 24 21 21 25 26 27 27 25 22 21 21 20 18 16 13 11 8 6 5 5 5 5 7 10 13 16 19 21 23 23 24 26 27 29 30 31 31 30 29 28 27
28 28 29 29 29 28 26 24 21 21 21 20 19 17 15 12 9 7 7 7 6 6 8 10 11 13 16 18 21 23 24 24 26 28 29 31 32 32 30 29 29 28
31 32 33 31 31 30 28 24 23 23 21 19 16 14 12 10 8 8 9 9 7 8 11 12 13 14 16 19 22 24 24 25 27 29 30 32 32 32 30 29 28 28
34 36 36 34 32 30 27 26 25 23 20 17 14 12 10 8 8 10 10 9 9 11 13 14 15 15 17 20 22 24 26 26 27 29 31 33 32 31 30 30 29 29
Wind_Direction
204 204 206 210 214 218 219 215 213 213 213 213 212 211 206 204 212 221 231 250 272 295 308 313 320 331 340 347 352 352 351 349 347 344 341 341 342 343 341 338 336 334
206 206 207 210 214 218 221 220 217 218 218 218 219 217 212 213 220 225 231 240 256 278 294 301 313 325 333 338 342 344 342 341 342 341 339 338 336 336 337 336 335 333
208 208 208 210 213 215 220 220 219 220 221 220 220 218 217 220 225 227 228 236 251 269 284 297 312 323 329 332 335 336 337 338 341 341 341 341 339 338 337 335 334 332
211 211 211 212 213 216 219 220 219 219 218 218 219 218 219 221 222 223 227 237 253 269 284 299 313 321 325 327 329 331 333 336 340 339 338 338 338 336 335 333 331 330
213 214 214 214 215 217 219 219 219 218 216 216 218 218 219 219 219 222 229 239 253 269 286 301 311 318 321 323 325 327 330 333 334 331 328 328 329 329 329 328 327 327
214 215 215 216 217 218 218 219 218 217 215 214 215 216 217 218 221 226 233 242 254 268 284 299 307 312 314 316 319 322 323 323 323 323 321 321 323 325 326 326 324 324
214 215 215 216 218 219 218 217 215 214 213 211 212 213 213 216 221 228 235 243 253 270 286 296 301 304 305 306 310 314 314 315 318 320 320 321 322 324 326 327 325 324
214 214 214 214 216 218 216 214 212 211 210 208 207 207 209 214 218 222 227 237 252 271 284 290 292 292 293 298 305 308 311 315 320 321 321 322 324 325 328 329 328 325
215 213 212 211 213 215 214 212 210 208 207 205 203 202 204 209 212 213 217 230 248 264 273 279 281 282 287 296 304 308 313 316 319 320 320 320 321 321 323 324 323 322
218 214 210 209 211 213 213 211 209 206 204 202 200 199 199 199 201 204 212 226 239 251 260 265 266 272 286 299 305 309 313 315 315 315 314 314 315 316 318 316 313 313
218 215 211 209 209 210 210 209 207 204 201 199 197 196 195 194 196 202 212 223 234 243 247 248 256 276 293 302 308 311 312 312 313 312 311 310 310 310 313 313 309 305
211 210 211 210 209 208 207 206 205 202 198 196 195 195 195 196 199 204 212 223 232 234 234 243 269 292 302 306 310 311 311 311 311 310 309 308 307 308 308 309 306 300
209 206 206 208 209 207 204 201 201 200 196 195 195 195 196 199 203 208 216 222 223 223 232 264 290 300 306 309 310 310 310 309 309 309 308 307 306 307 306 305 303 298
208 206 204 204 204 202 197 194 194 195 196 195 195 194 197 203 209 214 214 212 213 225 257 287 299 303 307 308 309 310 310 309 309 308 307 306 305 304 303 301 300 298
207 206 203 200 197 193 189 188 188 191 194 195 194 195 199 206 212 213 208 204 212 241 274 288 295 300 306 310 312 314 314 312 310 308 306 305 303 302 301 298 297 296
208 205 200 194 190 188 186 184 184 187 190 192 194 197 201 205 207 205 202 207 219 241 260 275 291 303 311 315 316 317 314 310 308 306 305 304 303 301 299 297 296 294
207 201 195 190 187 187 186 183 180 183 186 189 193 196 200 203 203 202 204 212 220 234 257 277 299 314 322 323 320 317 312 309 307 306 305 303 302 300 298 296 295 293
203 196 190 186 184 184 184 180 178 181 184 186 189 192 197 200 201 203 206 213 227 245 267 290 314 329 334 334 329 324 318 313 310 308 307 304 302 300 298 296 295 293
200 194 188 185 182 181 183 180 177 178 180 183 187 191 195 197 198 201 204 213 231 247 276 308 329 339 343 343 338 331 323 315 311 309 307 305 303 301 299 296 294 292
199 194 190 186 183 182 183 182 179 177 178 182 186 188 191 192 193 197 202 211 232 258 291 316 333 341 344 345 341 335 326 316 311 308 305 303 302 300 298 295 292 290
198 194 189 185 181 179 180 179 177 174 174 179 184 186 189 191 191 196 201 212 242 271 290 311 326 334 342 346 345 340 331 318 310 306 303 301 300 298 296 293 291 290
195 190 187 180 172 171 173 173 171 170 171 176 182 184 186 188 188 196 207 223 241 252 267 289 309 326 339 346 348 344 335 323 313 306 302 299 297 295 294 292 291 289
190 180 172 163 159 163 169 167 164 167 173 179 182 181 183 187 192 201 215 225 224 224 248 276 299 324 339 345 347 345 337 326 317 308 302 298 294 293 292 291 290 288
186 176 167 162 163 169 169 163 163 172 179 183 183 181 183 189 197 208 215 214 213 226 251 274 299 322 335 340 343 343 338 328 320 310 303 298 295 293 291 290 289 287
183 175 168 165 168 170 168 167 174 178 177 178 181 183 188 194 203 215 216 210 216 241 261 279 300 316 327 334 339 341 337 330 321 312 303 299 296 294 293 290 288 286
181 173 168 168 171 171 169 170 171 170 170 175 183 189 194 203 216 224 222 219 231 254 270 283 296 309 322 330 336 338 335 329 321 310 302 299 297 295 293 291 288 285